Probability
0 0 0 0 0 0 0 0 0 0 0 0 0 0 16 26 45 35 29 10 3 0 0 0 0 45 97 87 90 97 97 94 94 81 97 100 87 87 81 39 42 65 48 35
0 0 0 0 0 0 0 0 0 0 0 0 0 0 6 19 10 3 10 3 0 0 0 0 0 35 81 84 84 74 90 90 84 81 71 65 26 87 84 55 94 87 71 29
0 0 0 0 0 0 0 0 0 0 0 0 0 0 0 0 0 0 0 0 0 0 0 0 0 55 81 58 13 45 97 94 55 35 6 19 10 29 10 19 42 84 55 74
0 0 0 0 0 0 0 0 0 0 0 0 0 0 0 0 0 0 3 0 0 0 16 19 65 84 74 0 0 29 61 32 0 0 0 0 0 0 23 10 29 26 58 61
0 0 0 0 0 0 0 0 0 0 0 0 0 0 0 0 0 0 0 13 16 45 52 39 29 19 3 0 0 0 0 0 0 0 0 0 0 0 0 0 0 0 0 0
0 0 0 0 0 0 0 0 0 0 0 0 0 0 0 0 0 0 0 13 6 0 0 0 0 0 0 0 0 0 0 0 0 0 0 0 0 0 0 0 0 0 0 0
0 0 0 0 0 0 0 0 0 0 0 0 0 0 0 0 0 0 0 0 0 0 0 0 0 0 0 0 0 0 0 0 0 0 0 0 0 0 0 0 0 0 0 0
0 0 0 0 0 0 0 0 0 0 0 0 0 0 0 0 0 0 0 0 0 0 0 0 0 0 0 0 0 0 0 0 0 0 0 0 0 0 0 0 0 0 0 0
0 0 0 0 0 0 0 0 0 0 0 0 0 0 0 0 0 0 0 0 0 0 0 0 0 0 0 0 0 0 0 0 0 0 0 0 0 0 0 0 0 0 0 0
0 0 0 0 0 0 0 0 0 0 0 0 0 0 0 0 0 0 0 0 0 0 0 0 0 0 0 0 0 0 0 0 0 0 0 0 0 0 0 0 0 0 0 0
0 0 0 0 0 0 0 0 0 0 0 0 0 0 0 0 0 0 0 0 0 0 0 0 0 0 0 0 0 0 0 0 0 0 0 0 0 0 0 0 0 0 0 0
0 0 0 0 0 0 0 0 0 0 0 0 0 0 0 0 0 0 0 0 0 0 0 0 0 0 0 0 0 0 0 0 0 0 0 0 0 0 0 0 0 0 0 0
0 0 0 0 0 0 0 0 0 0 0 0 0 0 0 0 0 0 0 0 0 0 0 0 0 0 0 0 0 0 0 0 0 0 0 0 0 0 0 0 0 0 0 0
0 0 0 0 0 0 0 0 0 0 0 0 0 0 0 0 0 0 0 0 0 0 0 0 0 0 0 0 0 0 0 0 0 0 0 0 0 0 0 0 0 0 0 0
0 0 0 0 0 0 0 0 0 0 0 0 0 0 0 0 0 0 0 0 0 0 0 0 0 0 0 0 0 0 0 0 0 0 0 0 0 0 0 0 0 0 0 0
0 0 0 0 0 0 0 0 0 0 0 0 0 0 0 0 0 0 0 0 0 0 0 0 0 0 0 0 0 0 0 0 0 0 0 0 0 0 0 0 0 0 0 0
0 0 0 0 0 0 0 0 0 0 0 0 0 0 0 0 0 0 0 0 0 0 0 0 0 0 0 0 0 0 0 0 0 0 0 0 0 0 0 0 0 0 0 0
0 0 0 0 0 0 0 0 0 0 0 0 0 0 0 0 0 0 0 0 0 0 0 0 0 0 0 0 0 0 0 0 0 0 0 0 0 0 0 0 0 0 0 0
0 0 0 0 0 0 0 0 0 0 0 0 0 0 0 0 0 0 0 0 0 0 0 0 0 0 0 0 0 0 0 0 0 0 0 0 0 0 0 0 0 0 0 0
0 0 0 0 0 0 0 0 0 0 0 0 0 0 0 0 0 0 0 0 0 0 0 0 0 0 0 0 0 0 0 0 0 0 0 0 0 0 0 0 0 0 0 0
0 0 0 0 0 0 0 0 0 0 0 0 0 0 0 0 0 0 0 0 0 0 0 0 0 0 0 0 0 0 0 0 0 0 0 0 0 0 0 0 0 0 0 0
0 0 0 0 0 0 0 0 0 0 0 0 0 0 0 0 0 0 0 0 0 0 0 0 0 0 0 0 0 0 0 0 0 0 0 0 0 0 0 0 0 0 0 0
0 0 0 0 0 0 0 0 0 0 0 0 0 0 0 0 0 0 0 0 0 0 0 0 0 0 0 0 0 0 0 0 0 0 0 0 0 0 0 0 0 0 0 0
0 0 0 0 0 0 0 0 0 0 0 0 0 0 0 0 0 0 0 0 0 0 0 0 0 0 0 0 0 0 0 0 0 0 0 0 0 0 0 0 0 0 0 0
0 0 0 0 0 0 0 0 0 0 0 0 0 0 0 0 0 0 0 0 0 0 0 0 0 0 0 0 0 0 0 0 0 0 0 0 0 0 0 0 0 0 0 0
0 0 0 0 0 0 0 0 0 0 0 0 0 0 0 0 0 0 0 0 0 0 0 0 0 0 0 0 0 0 0 0 0 0 0 0 0 0 0 0 0 0 0 0
Height
5829 5832 5833 5834 5837 5839 5841 5845 5849 5851 5852 5855 5856 5856 5856 5860 5860 5861 5862 5863 5867 5871 5873 5877 5878 5878 5880 5884 5887 5888 5891 5893 5892 5888 5885 5884 5885 5884 5883 5882 5883 5884 5883 5883
5823 5825 5827 5829 5832 5835 5837 5840 5843 5845 5846 5848 5850 5851 5849 5850 5852 5853 5853 5856 5860 5864 5865 5870 5872 5871 5874 5877 5878 5882 5886 5888 5885 5880 5876 5875 5877 5876 5875 5876 5877 5877 5877 5877
5814 5819 5821 5823 5825 5827 5829 5832 5836 5837 5839 5840 5842 5845 5845 5844 5845 5846 5847 5848 5851 5855 5857 5859 5861 5863 5865 5868 5866 5866 5871 5875 5871 5870 5868 5866 5866 5868 5869 5869 5868 5869 5870 5871
5808 5810 5812 5816 5819 5821 5822 5824 5828 5830 5832 5833 5835 5837 5839 5839 5839 5839 5839 5838 5841 5843 5846 5846 5849 5851 5854 5854 5852 5853 5857 5858 5857 5861 5858 5858 5857 5859 5862 5862 5863 5864 5863 5863
5805 5807 5806 5810 5813 5813 5815 5817 5819 5822 5824 5825 5826 5828 5832 5832 5832 5831 5831 5832 5834 5835 5835 5833 5835 5838 5839 5839 5840 5842 5841 5841 5843 5847 5848 5850 5852 5853 5856 5856 5857 5857 5857 5856
5799 5802 5805 5806 5805 5806 5809 5810 5812 5815 5816 5816 5819 5819 5818 5821 5824 5826 5825 5824 5828 5828 5825 5824 5825 5827 5828 5829 5829 5830 5828 5825 5826 5833 5839 5842 5844 5845 5848 5849 5848 5848 5848 5848
5792 5795 5797 5797 5799 5801 5802 5804 5806 5808 5809 5811 5814 5811 5808 5810 5814 5816 5815 5815 5818 5820 5819 5818 5815 5817 5820 5821 5817 5822 5821 5818 5819 5825 5830 5834 5835 5838 5840 5840 5840 5839 5840 5839
5787 5791 5793 5794 5795 5795 5797 5798 5801 5802 5803 5805 5805 5803 5804 5803 5804 5805 5805 5807 5809 5810 5810 5811 5809 5807 5807 5809 5812 5816 5820 5817 5817 5819 5822 5826 5829 5829 5828 5829 5830 5830 5830 5830
5788 5790 5791 5790 5789 5789 5791 5792 5793 5794 5795 5798 5798 5797 5797 5796 5796 5796 5797 5798 5801 5800 5801 5805 5805 5802 5801 5801 5802 5808 5808 5809 5809 5810 5812 5814 5817 5819 5820 5819 5820 5820 5820 5821
5785 5785 5784 5785 5785 5785 5787 5786 5787 5788 5788 5790 5791 5792 5791 5790 5791 5791 5790 5790 5792 5794 5793 5795 5795 5794 5797 5799 5797 5798 5800 5802 5803 5804 5806 5807 5809 5811 5811 5811 5812 5811 5811 5811
5779 5781 5782 5781 5780 5779 5780 5781 5782 5782 5782 5783 5784 5787 5784 5783 5782 5783 5785 5787 5790 5792 5790 5786 5784 5785 5790 5793 5793 5795 5796 5796 5796 5798 5799 5800 5801 5802 5803 5803 5803 5804 5804 5803
5770 5771 5772 5774 5774 5773 5774 5774 5776 5776 5776 5776 5776 5780 5777 5779 5777 5777 5779 5782 5786 5788 5789 5787 5784 5784 5785 5787 5788 5789 5789 5788 5787 5789 5791 5793 5794 5795 5795 5795 5795 5795 5796 5795
5765 5764 5763 5764 5767 5766 5764 5766 5768 5768 5768 5769 5770 5772 5772 5772 5773 5774 5774 5775 5779 5781 5783 5782 5780 5779 5778 5779 5780 5781 5781 5782 5782 5782 5783 5784 5785 5786 5787 5787 5787 5788 5788 5788
5759 5757 5755 5756 5754 5755 5755 5756 5758 5759 5760 5762 5763 5764 5766 5766 5767 5767 5766 5766 5768 5771 5773 5774 5775 5773 5771 5772 5772 5773 5773 5774 5775 5774 5773 5775 5775 5776 5777 5777 5778 5780 5781 5781
5751 5751 5747 5746 5745 5748 5748 5749 5750 5751 5753 5755 5757 5757 5757 5759 5760 5760 5759 5758 5758 5758 5760 5762 5763 5764 5764 5763 5764 5764 5764 5765 5765 5765 5765 5765 5766 5766 5767 5768 5770 5772 5773 5773
5742 5743 5742 5741 5738 5741 5743 5743 5744 5743 5745 5747 5748 5749 5751 5751 5750 5750 5750 5751 5750 5750 5750 5750 5751 5753 5753 5754 5754 5753 5753 5754 5754 5754 5756 5757 5757 5758 5758 5759 5760 5763 5764 5764
5734 5734 5737 5736 5733 5735 5737 5738 5741 5739 5738 5741 5742 5743 5744 5744 5742 5741 5740 5740 5741 5742 5741 5740 5738 5738 5738 5739 5739 5740 5741 5742 5743 5744 5746 5748 5748 5749 5750 5750 5752 5753 5755 5756
5728 5728 5729 5730 5729 5729 5732 5731 5733 5733 5733 5733 5732 5733 5734 5735 5733 5732 5731 5730 5729 5729 5729 5728 5727 5726 5726 5725 5726 5727 5728 5730 5732 5733 5735 5737 5739 5740 5741 5742 5743 5745 5747 5748
5727 5726 5725 5725 5724 5724 5726 5725 5726 5728 5729 5728 5727 5727 5727 5727 5726 5725 5724 5722 5721 5720 5718 5717 5715 5714 5714 5715 5716 5717 5718 5720 5721 5722 5724 5725 5728 5730 5732 5734 5735 5737 5738 5738
5724 5722 5722 5721 5721 5721 5723 5721 5722 5725 5726 5725 5723 5722 5722 5721 5720 5720 5718 5715 5713 5711 5710 5709 5707 5704 5705 5706 5707 5708 5710 5712 5714 5715 5716 5717 5718 5720 5723 5724 5726 5729 5729 5729
5719 5718 5717 5717 5716 5716 5717 5716 5718 5721 5720 5719 5717 5716 5716 5715 5715 5714 5712 5710 5707 5706 5704 5701 5700 5699 5699 5700 5701 5702 5703 5705 5707 5708 5708 5710 5710 5712 5715 5717 5719 5721 5721 5723
5715 5714 5714 5712 5712 5713 5712 5712 5713 5713 5713 5712 5711 5712 5711 5710 5709 5707 5705 5703 5701 5700 5697 5695 5694 5695 5696 5696 5697 5698 5698 5700 5701 5702 5703 5704 5705 5705 5707 5708 5710 5711 5711 5712
5714 5712 5710 5709 5709 5708 5707 5708 5708 5708 5707 5707 5707 5707 5706 5705 5703 5701 5698 5697 5695 5694 5692 5691 5690 5690 5692 5693 5693 5694 5695 5695 5696 5697 5697 5698 5698 5698 5699 5699 5700 5699 5700 5702
5713 5710 5707 5705 5703 5703 5703 5704 5704 5704 5703 5703 5702 5702 5702 5701 5699 5697 5694 5692 5690 5689 5687 5687 5687 5687 5688 5689 5689 5689 5691 5692 5692 5692 5693 5694 5694 5694 5693 5693 5692 5692 5693 5695
5712 5708 5705 5702 5702 5700 5699 5699 5699 5700 5699 5698 5698 5697 5696 5695 5693 5692 5690 5687 5685 5684 5683 5683 5682 5682 5683 5683 5684 5685 5684 5687 5686 5686 5686 5687 5687 5687 5686 5687 5687 5686 5686 5687
5713 5710 5707 5704 5702 5700 5699 5697 5696 5695 5694 5693 5692 5692 5691 5690 5688 5686 5685 5684 5682 5680 5679 5678 5677 5676 5676 5676 5676 5676 5676 5677 5679 5677 5677 5678 5678 5679 5679 5679 5679 5679 5679 5678
Wind_Speed
29 28 29 30 30 31 32 33 32 32 33 36 37 34 39 42 42 41 42 41 37 30 26 21 23 24 21 18 21 29 28 29 33 30 29 33 32 30 27 26 25 23 23 24
29 31 33 33 33 32 32 33 32 32 33 34 35 34 34 41 42 44 44 43 40 35 31 29 32 31 27 26 31 32 27 31 44 39 36 39 35 32 27 24 24 23 25 27
28 30 33 35 35 35 36 35 33 33 32 33 33 34 35 38 42 44 44 44 43 42 40 36 37 41 37 36 42 41 34 44 51 47 42 42 36 28 25 26 27 26 27 30
31 32 34 33 33 34 36 36 35 34 34 35 36 37 37 38 40 42 42 42 42 42 42 45 46 47 47 47 46 44 41 43 47 42 38 35 31 24 27 30 29 28 28 30
26 28 31 28 28 32 32 33 33 32 34 36 38 39 38 39 41 42 41 42 44 44 42 43 42 42 46 48 45 41 43 48 51 48 38 37 35 31 30 31 30 29 29 30
20 22 23 25 27 29 26 28 25 24 29 34 34 38 39 38 38 38 40 43 41 35 36 35 34 33 35 35 39 39 47 47 50 52 44 39 38 35 32 32 32 32 33 35
20 21 24 26 27 28 28 27 24 22 25 28 27 34 38 36 31 30 33 35 34 34 32 30 33 34 38 39 41 43 44 34 32 31 30 33 34 35 35 35 36 36 37 38
11 15 22 23 23 26 28 27 27 26 27 26 27 30 32 32 28 26 27 28 32 37 42 41 39 36 38 37 25 25 25 28 29 32 32 34 36 39 39 39 39 39 39 39
6 13 20 24 24 27 23 23 23 26 27 26 28 29 27 28 24 24 27 28 29 37 40 42 39 38 40 42 38 33 25 21 22 29 33 35 37 39 39 39 39 39 39 38
11 11 12 15 21 26 20 20 22 24 26 25 26 27 28 28 25 26 31 31 25 27 35 41 40 30 22 25 26 28 21 20 23 27 29 30 31 33 34 35 35 34 34 34
23 21 21 22 24 24 20 20 23 23 23 24 25 27 26 26 27 26 32 35 29 32 41 41 35 34 20 17 19 24 27 30 29 29 30 31 30 31 31 31 32 33 34 34
30 32 31 27 24 26 26 24 24 25 24 19 23 25 23 21 27 28 30 27 28 26 26 19 13 17 21 23 23 26 28 30 30 30 30 33 33 33 32 31 32 33 33 33
32 33 33 28 24 26 29 29 28 26 25 20 25 30 25 26 27 30 30 26 25 23 22 25 28 29 28 28 26 25 28 29 31 32 32 34 37 36 34 34 34 31 29 28
27 30 30 29 28 26 27 29 27 24 25 26 31 33 32 34 31 28 31 34 33 32 32 30 32 33 33 31 30 30 29 27 29 31 31 32 34 34 32 31 30 30 27 26
18 18 21 23 25 24 28 31 32 33 31 27 23 28 30 33 35 37 37 38 38 37 39 37 33 33 35 34 33 33 35 33 31 31 31 32 31 31 31 31 31 32 30 25
26 24 20 18 21 24 28 27 25 26 25 23 20 23 26 32 37 39 40 40 40 41 41 41 40 39 38 39 39 37 35 34 32 31 33 31 30 29 28 29 31 33 32 27
22 24 20 17 22 25 29 29 25 24 23 23 25 29 31 35 38 40 39 38 39 38 40 41 41 39 38 38 38 39 38 35 33 31 34 36 33 29 26 26 29 31 30 26
13 13 15 19 21 21 23 22 27 35 33 29 35 41 42 39 36 33 33 34 34 35 35 37 37 37 36 36 36 38 38 37 36 34 33 35 34 32 30 29 31 33 33 29
10 8 9 14 18 19 23 24 17 19 26 29 32 34 31 29 29 29 28 28 28 28 29 31 33 33 32 33 34 35 35 33 33 33 32 34 33 33 34 34 32 36 40 36
15 13 12 11 14 17 17 20 21 18 14 13 15 19 22 23 23 22 23 25 25 25 26 27 26 28 27 26 27 28 28 26 25 27 27 28 33 31 28 28 31 38 43 42
10 9 9 12 15 15 13 14 14 16 17 15 15 16 16 17 18 20 22 23 24 24 27 27 23 20 18 18 18 17 19 21 22 22 22 21 22 24 22 22 28 34 35 34
13 9 10 14 16 16 15 16 15 15 15 14 14 12 11 12 15 18 20 20 21 22 24 23 19 16 13 13 14 16 15 17 17 17 21 24 25 22 20 22 30 37 38 38
11 9 10 11 11 13 12 13 16 14 13 13 13 12 11 11 16 19 20 20 18 17 17 15 12 13 16 19 19 17 15 14 14 13 16 21 26 22 21 23 25 26 26 26
13 9 10 9 5 7 7 7 8 8 8 9 10 10 10 13 17 20 21 20 17 15 13 12 11 12 16 16 17 19 22 20 15 18 18 21 26 28 29 29 25 23 21 21
16 14 12 10 6 3 4 6 9 9 9 10 11 13 16 19 20 20 20 18 15 13 14 14 13 14 17 19 21 26 25 24 26 26 28 32 31 31 31 30 29 25 24 26
19 17 14 13 11 8 6 6 9 10 10 12 13 14 14 16 18 18 17 17 17 17 16 16 17 19 20 21 23 26 29 30 33 35 37 37 35 35 31 32 33 33 31 27
Wind_Direction
233 234 233 233 233 233 237 242 245 247 247 248 252 256 256 253 255 259 264 267 273 281 276 271 265 268 270 253 235 246 263 281 278 271 278 282 281 279 276 275 278 280 277 277
231 231 234 238 240 242 246 251 253 255 256 256 255 253 255 263 264 266 270 273 275 274 275 273 263 262 265 255 247 252 261 270 268 258 266 273 274 273 273 273 271 268 269 273
227 234 237 240 242 245 248 251 255 258 261 263 261 256 249 256 263 265 267 268 270 269 269 271 265 262 261 259 263 261 260 279 269 263 266 265 261 265 274 273 268 264 266 270
231 231 236 240 246 249 252 252 250 250 252 252 253 253 252 251 259 266 268 268 269 269 269 269 266 262 259 256 258 257 262 266 258 247 252 263 265 271 272 268 266 265 269 274
244 241 240 235 240 244 249 251 250 245 243 247 249 253 253 255 258 267 275 274 273 274 271 269 267 266 261 258 254 250 254 253 254 255 262 259 268 274 268 262 259 262 267 272
245 238 251 247 237 242 245 250 253 246 242 244 246 253 259 257 256 261 268 270 269 266 264 264 265 263 259 253 242 238 242 237 239 247 243 249 262 266 264 261 263 267 272 276
247 245 242 243 240 243 243 245 252 250 249 253 251 253 259 264 266 263 262 260 253 249 249 248 252 257 253 239 227 220 228 232 236 240 239 251 259 259 258 260 265 270 273 274
249 244 238 241 241 244 246 244 247 251 253 252 249 252 256 264 267 263 257 250 249 245 247 250 255 258 254 256 249 229 247 259 263 258 252 257 262 263 264 266 268 269 269 269
262 267 246 237 236 243 245 245 244 249 250 251 249 250 252 255 258 256 257 262 264 263 259 248 246 261 270 283 291 285 300 304 274 264 262 264 265 266 265 265 266 266 267 268
275 292 282 274 257 253 249 243 238 245 253 252 247 248 254 255 254 259 261 265 280 279 275 271 272 275 281 280 279 272 268 267 271 268 264 264 265 266 267 267 267 268 269 271
283 272 279 282 271 269 266 266 249 247 256 254 251 246 246 250 251 252 256 263 284 281 281 282 278 271 277 275 268 261 257 261 262 264 266 268 269 269 269 269 271 273 273 271
281 280 276 272 264 261 255 259 254 248 245 249 249 242 239 245 251 258 262 268 267 263 258 252 262 285 285 282 275 269 265 265 264 262 265 268 267 268 270 272 274 277 275 270
279 281 280 278 267 255 251 248 248 247 247 252 250 244 246 259 261 258 257 263 254 246 248 259 273 284 285 282 278 273 270 267 263 261 261 266 266 268 272 272 271 273 273 268
285 285 280 278 268 257 254 250 244 251 257 265 263 257 255 258 266 266 259 263 269 271 277 273 268 275 279 277 273 270 270 270 264 261 261 263 266 267 269 270 266 265 266 273
271 272 273 280 263 252 252 256 256 257 257 267 267 257 257 260 265 272 273 272 276 282 283 278 276 276 275 274 273 271 270 268 264 259 260 261 263 263 263 261 259 260 264 270
267 263 261 271 256 236 246 253 257 254 254 258 255 255 267 273 272 272 274 275 276 276 276 276 280 279 273 269 269 269 268 266 265 262 258 260 261 262 263 258 256 259 258 257
273 261 254 251 248 243 248 253 246 251 247 240 252 268 275 275 279 280 280 279 275 276 273 273 277 278 275 271 269 266 264 265 265 264 259 255 257 258 261 258 253 253 251 250
282 270 251 241 245 251 249 259 246 248 258 266 272 277 283 284 283 284 283 284 282 278 276 275 274 274 272 270 267 265 262 260 260 258 257 254 252 253 248 249 247 247 245 242
276 272 266 258 261 254 243 242 263 259 268 273 272 271 272 274 277 280 282 281 282 286 287 286 282 277 271 266 263 261 259 257 255 254 253 252 251 249 250 249 243 241 240 238
318 301 290 271 265 258 257 256 255 257 277 277 271 264 267 272 277 284 287 286 286 288 291 295 290 279 268 261 258 256 254 252 247 246 247 247 247 247 255 254 246 240 236 233
320 315 281 273 277 271 265 272 272 269 277 280 272 268 269 275 284 291 292 288 283 282 285 295 292 284 266 254 248 254 248 242 240 238 236 234 237 241 246 242 233 228 225 231
319 308 303 295 281 275 272 265 287 291 279 277 270 272 275 289 304 308 300 291 286 289 293 297 288 264 254 259 247 252 253 244 238 235 233 230 232 240 244 246 246 247 251 253
360 336 318 308 287 271 280 282 286 297 291 282 273 267 266 287 310 313 305 297 296 300 301 297 285 253 249 242 242 244 245 241 252 261 254 250 247 253 272 284 281 271 268 266
355 345 341 341 302 258 252 266 280 288 289 277 270 264 265 288 301 301 299 295 293 296 299 293 279 255 242 249 245 229 232 238 244 253 250 247 255 269 277 281 273 265 262 259
19 21 11 11 21 328 279 279 283 279 281 282 286 291 294 297 300 296 293 290 288 290 294 292 284 267 257 257 250 251 264 259 242 250 258 253 256 265 265 250 254 259 264 265
28 32 30 27 29 16 350 320 313 311 304 299 299 303 305 308 307 301 295 292 291 291 292 293 289 284 278 271 263 260 263 260 254 257 257 262 265 264 258 255 259 262 264 263